[[{"header":{"parameterUnit":"m.s-1","parameterCategory":1,"la1":30.2992,"la2":30.254,"lo1":-89.0895,"lo2":-89.0443,"dy":0.0025,"dx":0.0025,"nx":19,"ny":19,"refTime":"2026-04-20T03:00:00:Z","depth":0,"parameterNumber":2,"parameterNumberName":"U-component_of_WINDS"},"data":[0,0,0,-6.4816,-6.4818,-6.4894,-6.4894,-6.5028,-6.5029,0,0,0,0,0,0,0,0,0,0,0,-6.4816,-6.4817,-6.4816,-6.4819,-6.4894,-6.4894,-6.5027,-6.5029,0,0,0,0,0,0,0,0,0,0,0,-6.4815,-6.4817,-6.4819,-6.4819,-6.4894,-6.4894,-6.5027,-6.4957,0,0,0,0,0,0,0,0,0,0,-6.4877,-6.4898,-6.4817,-6.4819,-6.4819,-6.4894,-6.4894,-6.4953,-6.4961,-6.5009,0,-6.5057,0,-6.5046,-6.504,-6.5041,0,0,0,-6.4802,-6.4891,-6.4892,-6.4819,-6.482,-6.4894,-6.4855,-6.4957,-6.4967,-6.5021,-6.5059,-6.5063,-6.5048,-6.5042,-6.5042,-6.5375,-6.5378,0,0,-6.4798,-6.4841,-6.4886,-6.4899,-6.4889,-6.4853,-6.4858,-6.4962,-6.5007,-6.5059,-6.5065,-6.505,-6.5043,-6.5044,-6.5373,-6.5376,0,0,0,-6.4797,-6.4839,-6.4836,-6.4895,-6.4906,-6.4855,-6.4861,-6.5002,-6.4998,-6.5066,-6.5052,-6.5044,-6.5046,-6.537,-6.5374,-6.5533,0,0,0,-6.4794,-6.4838,-6.4835,-6.4862,-6.4904,-6.4955,-6.4899,-6.499,-6.5001,-6.5051,-6.5044,-6.5047,-6.5368,-6.5372,-6.5523,-6.5602,0,0,0,-6.4803,-6.4839,-6.4858,-6.4864,-6.4898,-6.4952,-6.4953,-6.4992,-6.4993,-6.5041,-6.5048,-6.5366,-6.5371,-6.5514,-6.5587,-6.5705,0,0,0,-6.4826,-6.4996,-6.4861,-6.5045,-6.4898,-6.5049,-6.4952,-6.5062,-6.5122,-6.5045,-6.5368,-6.5374,-6.5511,-6.5578,-6.5695,-6.5813,-6.5866,0,0,-6.5064,-6.5026,-6.5131,-6.5012,-6.5199,-6.5034,-6.5244,-6.5257,-6.5222,-6.5326,-6.5334,-6.5526,-6.5586,-6.5703,-6.614,-6.6182,0,0,0,-6.5221,-6.5298,-6.5338,-6.5398,-6.5413,-6.5433,-6.541,-6.5416,-6.5503,-6.5284,-6.5598,-6.5632,-6.5699,-6.5753,-6.5789,-6.5845,-6.54,-6.5399,-6.5399,-6.5622,-6.5569,-6.574,-6.5697,-6.5756,-6.5732,-6.5776,-6.5779,-6.5706,-6.5782,-6.5813,-6.6085,-6.6151,-6.6177,-6.6236,-6.5869,-6.5869,-6.587,-6.587,-6.5969,-6.607,-6.5971,-6.6102,-6.6046,-6.6155,-6.6139,-6.6085,-6.618,-6.6056,-6.6112,-6.5985,-6.6225,-6.6274,-6.5882,-6.588,-6.5878,-6.5877,-6.5876,-6.6228,-6.6267,-6.6271,-6.6355,-6.6425,-6.6374,-6.6472,-6.6415,-6.6362,-6.6418,-6.6447,-6.6445,-6.6437,-6.6435,-6.6436,-6.6437,-6.6438,-6.6439,-6.6439,-6.6496,-6.6495,-6.6584,-6.6616,-6.6649,-6.6685,-6.6664,-6.6695,-6.6715,-6.6666,-6.6666,-6.6589,-6.6257,-6.6177,-6.6454,-6.6451,-6.6449,-6.6448,-6.6447,-6.6873,-6.6779,-6.6916,-6.6949,-6.6984,-6.706,-6.6986,-6.7055,-6.7072,-6.7122,-6.7033,-6.6796,-6.6752,-6.6723,-6.6657,-6.7041,-6.7041,-6.7041,-6.7041,-6.7094,-6.7066,-6.7195,-6.7252,-6.7301,-6.725,-6.7409,-6.7396,-6.7367,-6.7375,-6.731,-6.7216,-6.7189,-6.7162,-6.7124,-6.7061,-6.754,-6.754,-6.754,-6.7324,-6.7299,-6.7445,-6.7415,-6.7439,-6.7461,-6.761,-6.7682,-6.7629,-6.756,-6.7381,-6.736,-6.7207,-6.716,-6.7089,-6.703,-6.6914,0,0]},{"header":{"parameterUnit":"m.s-1","parameterCategory":1,"la1":30.2992,"la2":30.254,"lo1":-89.0895,"lo2":-89.0443,"dy":0.0025,"dx":0.0025,"nx":19,"ny":19,"refTime":"2026-04-20T03:00:00:Z","depth":0,"parameterNumber":3,"parameterNumberName":"V-component_of_WINDS"},"data":[0,0,0,-0.6827,-0.6829,-0.6892,-0.6893,-0.6976,-0.6977,0,0,0,0,0,0,0,0,0,0,0,-0.681,-0.681,-0.6827,-0.6829,-0.6892,-0.6893,-0.6976,-0.6977,0,0,0,0,0,0,0,0,0,0,0,-0.6809,-0.681,-0.6811,-0.6829,-0.6892,-0.6893,-0.6976,-0.6927,0,0,0,0,0,0,0,0,0,0,-0.6865,-0.685,-0.681,-0.6811,-0.6829,-0.6892,-0.6893,-0.6925,-0.693,-0.6948,0,-0.6964,0,-0.6972,-0.6982,-0.6983,0,0,0,-0.6828,-0.6845,-0.6861,-0.6811,-0.683,-0.6892,-0.6863,-0.6928,-0.6934,-0.6955,-0.6965,-0.6968,-0.6973,-0.6983,-0.6983,-0.7088,-0.7089,0,0,-0.6824,-0.6822,-0.6857,-0.6865,-0.6855,-0.6861,-0.6865,-0.6931,-0.6942,-0.6966,-0.697,-0.6974,-0.6984,-0.6984,-0.7088,-0.7088,0,0,0,-0.6815,-0.6819,-0.6834,-0.6862,-0.6873,-0.6863,-0.6868,-0.6939,-0.6944,-0.6971,-0.6975,-0.6984,-0.6985,-0.7087,-0.7088,-0.7112,0,0,0,-0.6813,-0.6814,-0.6832,-0.6831,-0.6872,-0.6907,-0.6875,-0.694,-0.6947,-0.6975,-0.6984,-0.6986,-0.7087,-0.7088,-0.711,-0.7125,0,0,0,-0.6805,-0.6813,-0.6822,-0.6831,-0.6858,-0.6906,-0.6915,-0.6941,-0.695,-0.6983,-0.6986,-0.7086,-0.7087,-0.7109,-0.7122,-0.7153,0,0,0,-0.6796,-0.6843,-0.6823,-0.6877,-0.6858,-0.692,-0.6914,-0.6961,-0.6992,-0.6985,-0.7087,-0.7088,-0.7108,-0.7121,-0.7151,-0.7179,-0.719,0,0,-0.6854,-0.685,-0.6882,-0.6866,-0.6931,-0.691,-0.6979,-0.701,-0.7016,-0.7064,-0.7066,-0.7111,-0.7122,-0.7152,-0.725,-0.7258,0,0,0,-0.69,-0.6923,-0.6941,-0.697,-0.6994,-0.7016,-0.7036,-0.7047,-0.7088,-0.704,-0.7129,-0.7136,-0.7154,-0.7168,-0.7175,-0.7191,-0.7094,-0.7093,-0.7093,-0.6981,-0.6984,-0.7037,-0.7048,-0.7076,-0.7095,-0.7118,-0.7137,-0.7133,-0.7153,-0.7169,-0.7227,-0.7243,-0.7249,-0.7265,-0.7182,-0.7182,-0.7182,-0.7182,-0.7068,-0.7102,-0.7093,-0.7142,-0.7145,-0.7185,-0.7205,-0.72,-0.7239,-0.7216,-0.7232,-0.7209,-0.7258,-0.7273,-0.7184,-0.7184,-0.7184,-0.7183,-0.7183,-0.7123,-0.714,-0.7151,-0.7193,-0.7224,-0.7232,-0.7269,-0.727,-0.7271,-0.7287,-0.7304,-0.7303,-0.7304,-0.7294,-0.7294,-0.7295,-0.7295,-0.7295,-0.7295,-0.7177,-0.7189,-0.722,-0.7248,-0.7266,-0.729,-0.7308,-0.7326,-0.7346,-0.7344,-0.7344,-0.7338,-0.7261,-0.7244,-0.7298,-0.7298,-0.7297,-0.7297,-0.7297,-0.7268,-0.7247,-0.7296,-0.7314,-0.7345,-0.7376,-0.7375,-0.7411,-0.7426,-0.7444,-0.7434,-0.7376,-0.7373,-0.7367,-0.7352,-0.7432,-0.7432,-0.7432,-0.7432,-0.7317,-0.7313,-0.7363,-0.7391,-0.7419,-0.7423,-0.7477,-0.749,-0.7501,-0.751,-0.7498,-0.7478,-0.7471,-0.7472,-0.7464,-0.745,-0.7553,-0.7553,-0.7553,-0.7373,-0.7373,-0.742,-0.7429,-0.7453,-0.7474,-0.7525,-0.7558,-0.7566,-0.7558,-0.7518,-0.7513,-0.748,-0.7468,-0.7463,-0.745,-0.7425,0,0]}]]